Погода в Палу

Индонезия     0°50′24″N   119°53′25″E
темп.,
°C
ветер,
м/с
пор.,
м/с
влажн.,
%
обл.,
%
осадки,
мм/ч
давл.,
гПа
погр.,
м
2 марта, вт
вт223:00+21зюз1294100 0.0 101287
02:00+20зюз1193100 0.0 101155
05:00+20зюз119197 0.3 101034
08:00+23зюз007998 0.3 101295
11:00+29с1254100 0.0 10121095
14:00+29зсз2360100 0.9 10091167
17:00+25з1277100 0.9 1009567
20:00+22в0098100 1.9 101124
3 марта, ср
ср323:00+21всв1298100 0.0 101344
02:00+21в1298100 0.0 101052
05:00+20в129895 0.1 101039
08:00+23вюв139095 0.2 1012267
11:00+28всв216867 0.8 1012926
14:00+28ссв117251 2.9 1009697
17:00+24сз009133 4.7 1009304
20:00+21зсз019549 7.6 101123
4 марта, чт
чт423:00+21ссв009454 0.8 101224
02:00+20зюз019566 0.9 101124
05:00+20зюз0197100 2.6 101126
08:00+21ссв0094100 6.8 101325
11:00+23св1290100 1.1 1013182
14:00+26зсз1183100 4.2 1010664
17:00+22з1296100 3.9 1010235
20:00+20зюз0198100 4.8 101226
5 марта, пт
пт523:00+19зюз0095100 0.0 101224
02:00+19зсз0095100 0.0 101023
05:00+19с1195100 0.0 101123
08:00+21ссв0093100 0.0 101328
11:00+27св116777 0.6 1012877
14:00+26сз128388 4.1 1010565
17:00+24з1292100 3.1 1009346
20:00+21зюз1198100 4.1 101138
6 марта, сб
сб623:00+20зюз119899 0.0 101245
02:00+20ююз1198100 1.3 101130
05:00+20в129596 0.3 101027
08:00+23в238773 0.3 1012252
11:00+28всв236151 0.0 1011961
14:00+28всв226326 0.3 1009958
17:00+24всв238561 3.4 1010442
20:00+22в239480 3.9 1011113